When you browse on this site, cookies collect data to enhance your experience and personalize the content and advertising you see.
Visit our Privacy Policy to learn more. By continuing to use the site, you agree to this use of cookies and data.
  • In Austria
  • List of Countries
  • For 7 days
  • Water Temperature
  • Satellite Maps
  • Weather Map
  • News
  • Weather Widgets
  • user-avatar
    Login

    Hourly Weather San Juan

    Today, 20 November, Tuesday

    Time Temperature Precipitation Wind Pressure Humidity
    00:00 +28°C° 0 mm 3 mps 704 mmHg 36%
    01:00 +27°C° 0 mm 3 mps 704 mmHg 39%
    02:00 +26°C° 0 mm 2 mps 704 mmHg 42%
    03:00 +26°C° 0 mm 2 mps 704 mmHg 45%
    04:00 +25°C° 0 mm 2 mps 704 mmHg 48%
    05:00 +27°C° 0 mm 2 mps 705 mmHg 44%
    06:00 +28°C° 0 mm 2 mps 705 mmHg 39%
    07:00 +30°C° 0 mm 2 mps 706 mmHg 35%
    08:00 +31°C° 0 mm 2 mps 706 mmHg 30%
    09:00 +32°C° 0 mm 2 mps 706 mmHg 25%
    10:00 +35°C° 0 mm 2 mps 706 mmHg 21%
    11:00 +36°C° 0 mm 2 mps 705 mmHg 19%
    12:00 +36°C° 0 mm 3 mps 705 mmHg 17%
    13:00 +37°C° 0 mm 3 mps 704 mmHg 15%
    14:00 +38°C° 0 mm 3 mps 704 mmHg 15%
    15:00 +38°C° 0 mm 3 mps 703 mmHg 15%
    16:00 +38°C° 0 mm 3 mps 703 mmHg 15%
    17:00 +37°C° 0 mm 3 mps 703 mmHg 17%
    18:00 +35°C° 0 mm 2 mps 703 mmHg 19%
    19:00 +34°C° 0 mm 2 mps 704 mmHg 22%
    20:00 +34°C° 0 mm 2 mps 704 mmHg 23%
    21:00 +33°C° 0 mm 3 mps 704 mmHg 25%
    22:00 +31°C° 0 mm 3 mps 705 mmHg 27%
    23:00 +31°C° 0 mm 3 mps 704 mmHg 30%

    Tomorrow, 21 November, Wednesday

    Time Temperature Precipitation Wind Pressure Humidity
    00:00 +30°C° 0 mm 3 mps 704 mmHg 33%
    01:00 +29°C° 0 mm 3 mps 704 mmHg 36%
    02:00 +29°C° 0 mm 3 mps 704 mmHg 38%
    03:00 +28°C° 0 mm 2 mps 704 mmHg 40%
    04:00 +28°C° 0 mm 2 mps 704 mmHg 41%
    05:00 +29°C° 0 mm 2 mps 704 mmHg 37%
    06:00 +31°C° 0 mm 2 mps 704 mmHg 33%
    07:00 +32°C° 0 mm 2 mps 705 mmHg 28%
    08:00 +34°C° 0 mm 2 mps 704 mmHg 26%
    09:00 +36°C° 0 mm 2 mps 704 mmHg 23%
    10:00 +37°C° 0 mm 2 mps 704 mmHg 20%
    11:00 +38°C° 0 mm 3 mps 703 mmHg 18%
    12:00 +39°C° 0 mm 3 mps 702 mmHg 16%
    13:00 +40°C° 0 mm 3 mps 702 mmHg 14%
    14:00 +40°C° 0 mm 3 mps 701 mmHg 13%
    15:00 +40°C° 0 mm 3 mps 700 mmHg 12%
    16:00 +41°C° 0 mm 4 mps 700 mmHg 12%
    17:00 +39°C° 0 mm 3 mps 700 mmHg 13%
    18:00 +38°C° 0 mm 3 mps 700 mmHg 15%
    19:00 +37°C° 0 mm 3 mps 701 mmHg 17%
    20:00 +36°C° 0 mm 3 mps 701 mmHg 20%
    21:00 +35°C° 0 mm 3 mps 701 mmHg 23%
    22:00 +34°C° 0 mm 3 mps 702 mmHg 26%
    23:00 +33°C° 0 mm 3 mps 701 mmHg 30%

    Day after tomorrow, 22 November, Thursday

    Time Temperature Precipitation Wind Pressure Humidity
    00:00 +33°C° 0 mm 3 mps 701 mmHg 33%
    01:00 +31°C° 0 mm 3 mps 700 mmHg 36%
    02:00 +30°C° 0 mm 3 mps 701 mmHg 36%
    03:00 +30°C° 0 mm 3 mps 701 mmHg 35%
    04:00 +29°C° 0 mm 2 mps 701 mmHg 35%
    05:00 +30°C° 0.1 mm 4 mps 702 mmHg 33%
    06:00 +32°C° 0.1 mm 6 mps 702 mmHg 31%
    07:00 +33°C° 0.1 mm 8 mps 703 mmHg 28%
    08:00 +31°C° 0.1 mm 9 mps 704 mmHg 36%
    09:00 +29°C° 0.1 mm 10 mps 704 mmHg 44%
    10:00 +28°C° 0.1 mm 11 mps 704 mmHg 52%
    11:00 +29°C° 0 mm 10 mps 704 mmHg 49%
    12:00 +29°C° 0 mm 10 mps 704 mmHg 45%
    13:00 +31°C° 0 mm 9 mps 704 mmHg 42%
    14:00 +29°C° 0 mm 8 mps 704 mmHg 42%
    15:00 +29°C° 0 mm 8 mps 704 mmHg 42%
    16:00 +29°C° 0 mm 8 mps 704 mmHg 42%
    17:00 +28°C° 0 mm 7 mps 704 mmHg 44%
    18:00 +28°C° 0 mm 7 mps 705 mmHg 46%
    19:00 +27°C° 0 mm 6 mps 705 mmHg 47%
    20:00 +26°C° 0 mm 6 mps 706 mmHg 48%
    21:00 +26°C° 0 mm 5 mps 707 mmHg 49%
    22:00 +25°C° 0 mm 5 mps 707 mmHg 50%
    23:00 +25°C° 0 mm 4 mps 707 mmHg 50%

    23 November, Friday

    Time Temperature Precipitation Wind Pressure Humidity
    00:00 +23°C° 0 mm 4 mps 707 mmHg 51%
    01:00 +24°C° 0 mm 3 mps 707 mmHg 51%
    02:00 +22°C° 0 mm 3 mps 706 mmHg 51%
    03:00 +22°C° 0 mm 3 mps 706 mmHg 51%
    04:00 +23°C° 0 mm 2 mps 706 mmHg 51%
    05:00 +23°C° 0 mm 2 mps 706 mmHg 48%
    06:00 +24°C° 0 mm 3 mps 706 mmHg 45%
    07:00 +24°C° 0 mm 3 mps 706 mmHg 41%
    08:00 +26°C° 0 mm 3 mps 706 mmHg 40%
    09:00 +27°C° 0 mm 2 mps 705 mmHg 38%
    10:00 +28°C° 0 mm 2 mps 705 mmHg 36%
    11:00 +29°C° 0 mm 2 mps 704 mmHg 35%
    12:00 +30°C° 0 mm 3 mps 704 mmHg 33%
    13:00 +31°C° 0 mm 3 mps 703 mmHg 31%
    14:00 +31°C° 0 mm 3 mps 703 mmHg 30%
    15:00 +33°C° 0 mm 3 mps 702 mmHg 29%
    16:00 +33°C° 0 mm 3 mps 702 mmHg 29%
    17:00 +31°C° 0 mm 3 mps 703 mmHg 30%
    18:00 +31°C° 0 mm 3 mps 703 mmHg 31%
    19:00 +30°C° 0 mm 3 mps 704 mmHg 32%
    20:00 +29°C° 0 mm 3 mps 704 mmHg 34%
    21:00 +29°C° 0 mm 2 mps 705 mmHg 35%
    22:00 +28°C° 0 mm 2 mps 705 mmHg 36%
    23:00 +27°C° 0 mm 2 mps 705 mmHg 38%

    24 November, Saturday

    Time Temperature Precipitation Wind Pressure Humidity
    00:00 +27°C° 0 mm 2 mps 704 mmHg 40%
    01:00 +26°C° 0 mm 2 mps 704 mmHg 43%
    02:00 +25°C° 0 mm 2 mps 704 mmHg 44%
    03:00 +25°C° 0 mm 2 mps 704 mmHg 45%
    04:00 +24°C° 0 mm 2 mps 704 mmHg 46%
    05:00 +25°C° 0 mm 2 mps 705 mmHg 44%
    06:00 +26°C° 0 mm 2 mps 705 mmHg 43%
    07:00 +26°C° 0 mm 2 mps 705 mmHg 41%
    08:00 +28°C° 0 mm 2 mps 705 mmHg 39%
    09:00 +29°C° 0 mm 2 mps 705 mmHg 37%
    10:00 +30°C° 0 mm 2 mps 704 mmHg 35%
    11:00 +31°C° 0 mm 2 mps 704 mmHg 33%
    12:00 +34°C° 0 mm 2 mps 703 mmHg 31%
    13:00 +35°C° 0 mm 3 mps 703 mmHg 29%
    14:00 +35°C° 0 mm 3 mps 702 mmHg 29%
    15:00 +35°C° 0 mm 3 mps 702 mmHg 28%
    16:00 +36°C° 0 mm 3 mps 702 mmHg 28%
    17:00 +35°C° 0 mm 3 mps 702 mmHg 30%
    18:00 +34°C° 0 mm 4 mps 703 mmHg 32%
    19:00 +33°C° 0 mm 4 mps 704 mmHg 34%
    20:00 +32°C° 0 mm 4 mps 704 mmHg 37%
    21:00 +30°C° 0 mm 5 mps 704 mmHg 40%
    22:00 +29°C° 0 mm 5 mps 704 mmHg 44%
    23:00 +29°C° 0 mm 5 mps 704 mmHg 47%

    25 November, Sunday

    Time Temperature Precipitation Wind Pressure Humidity
    00:00 +28°C° 0 mm 5 mps 703 mmHg 50%
    01:00 +27°C° 0 mm 5 mps 703 mmHg 53%
    02:00 +27°C° 0 mm 4 mps 703 mmHg 55%
    03:00 +26°C° 0 mm 4 mps 703 mmHg 57%
    04:00 +26°C° 0 mm 3 mps 703 mmHg 58%
    05:00 +27°C° 0 mm 3 mps 703 mmHg 55%
    06:00 +28°C° 0 mm 3 mps 704 mmHg 51%
    07:00 +29°C° 0 mm 2 mps 704 mmHg 47%
    08:00 +30°C° 0 mm 2 mps 704 mmHg 43%
    09:00 +31°C° 0 mm 2 mps 703 mmHg 39%
    10:00 +34°C° 0 mm 2 mps 703 mmHg 35%
    11:00 +35°C° 0.1 mm 2 mps 703 mmHg 33%
    12:00 +36°C° 0.1 mm 3 mps 702 mmHg 30%
    13:00 +37°C° 0.1 mm 3 mps 701 mmHg 27%
    14:00 +37°C° 0.3 mm 4 mps 701 mmHg 27%
    15:00 +37°C° 0.3 mm 4 mps 701 mmHg 27%
    16:00 +37°C° 0.3 mm 5 mps 701 mmHg 27%
    17:00 +36°C° 0.5 mm 4 mps 701 mmHg 31%
    18:00 +35°C° 0.5 mm 4 mps 702 mmHg 34%
    19:00 +34°C° 0.5 mm 3 mps 702 mmHg 37%
    20:00 +33°C° 0.4 mm 3 mps 703 mmHg 42%
    21:00 +32°C° 0.4 mm 4 mps 703 mmHg 46%
    22:00 +30°C° 0.4 mm 4 mps 703 mmHg 51%
    23:00 +28°C° 0.8 mm 5 mps 703 mmHg 59%
    Show more